,,,PA_Meas_PMT16A,,PR_Meas_QMR101_102,,RH_Meas_QMH101,,SR_Meas_QMS101,,TA_Meas_QMH101,,GenWind,,GenWind,
date,time,status,PA,status,PR,status,RH,status,SR,status,TA,status,DirAvg,status,SpdAvg,
2009-11-21, 00:00:04,VALID,999.861,VALID,0,VALID,90.8306,VALID,0,VALID,24.4019,VALID,5,VALID,0.487109,
2009-11-21, 00:01:04,VALID,999.826,VALID,0,VALID,91.1434,VALID,0,VALID,24.3824,VALID,5,VALID,0.454688,
2009-11-21, 00:02:04,VALID,999.793,VALID,0,VALID,91.296,VALID,0,VALID,24.3629,VALID,5,VALID,0.360547,
2009-11-21, 00:03:04,VALID,999.779,VALID,0,VALID,91.4868,VALID,0,VALID,24.3433,VALID,5,VALID,0.170312,
2009-11-21, 00:04:04,VALID,999.811,VALID,0,VALID,91.6012,VALID,0,VALID,24.3238,VALID,5,VALID,0.0253906,
2009-11-21, 00:05:04,VALID,999.81,VALID,0,VALID,91.8606,VALID,0,VALID,24.3433,VALID,5,VALID,0.424609,
2009-11-21, 00:06:04,VALID,999.787,VALID,0,VALID,91.9674,VALID,0,VALID,24.3433,VALID,320,VALID,0.683984,
2009-11-21, 00:07:04,VALID,999.758,VALID,0,VALID,91.9903,VALID,0,VALID,24.3238,VALID,312,VALID,0.417188,
2009-11-21, 00:08:04,VALID,999.745,VALID,0,VALID,91.9751,VALID,0,VALID,24.3238,VALID,316,VALID,0,
2009-11-21, 00:09:04,VALID,999.724,VALID,0,VALID,92.0514,VALID,0,VALID,24.3238,VALID,317,VALID,0.00195313,
2009-11-21, 00:10:04,VALID,999.706,VALID,0,VALID,92.1048,VALID,0,VALID,24.3043,VALID,353,VALID,0.693359,
2009-11-21, 00:11:04,VALID,999.724,VALID,0,VALID,92.0819,VALID,0,VALID,24.3257,VALID,17,VALID,0.732422,
2009-11-21, 00:12:04,VALID,999.702,VALID,0,VALID,91.9522,VALID,0.112286,VALID,24.2458,VALID,355,VALID,1.00391,
2009-11-21, 00:13:04,VALID,999.683,VALID,0,VALID,92.0209,VALID,0,VALID,24.2476,VALID,344,VALID,0.922266,
2009-11-21, 00:14:04,VALID,999.672,VALID,0,VALID,92.0056,VALID,0,VALID,24.2263,VALID,346,VALID,0.612891,
2009-11-21, 00:15:04,VALID,999.618,VALID,0,VALID,92.3108,VALID,0,VALID,24.2263,VALID,349,VALID,0.641406,
2009-11-21, 00:16:04,VALID,999.594,VALID,0,VALID,92.4939,VALID,0,VALID,24.2458,VALID,42,VALID,0.932031,
2009-11-21, 00:17:04,VALID,999.578,VALID,0,VALID,92.4023,VALID,0,VALID,24.2263,VALID,51,VALID,0.869922,
2009-11-21, 00:18:04,VALID,999.529,VALID,0,VALID,92.1734,VALID,0.112286,VALID,24.2067,VALID,70,VALID,1.01211,
2009-11-21, 00:19:04,VALID,999.503,VALID,0,VALID,92.1277,VALID,0,VALID,24.2281,VALID,79,VALID,0.665625,
2009-11-21, 00:20:04,VALID,999.469,VALID,0,VALID,92.0285,VALID,0,VALID,24.1872,VALID,89,VALID,0.185156,
2009-11-21, 00:21:04,VALID,999.462,VALID,0,VALID,91.9369,VALID,0,VALID,24.1891,VALID,89,VALID,0.565625,
2009-11-21, 00:22:04,VALID,999.394,VALID,0,VALID,92.1048,VALID,0,VALID,24.1872,VALID,360,VALID,0.475781,
2009-11-21, 00:23:04,VALID,999.401,VALID,0,VALID,92.3489,VALID,0,VALID,24.2458,VALID,339,VALID,0.396875,
2009-11-21, 00:24:04,VALID,999.403,VALID,0,VALID,92.3413,VALID,0,VALID,24.2653,VALID,339,VALID,0.183203,
2009-11-21, 00:25:04,VALID,999.404,VALID,0,VALID,92.3794,VALID,0,VALID,24.2848,VALID,126,VALID,0.684766,
2009-11-21, 00:26:04,VALID,999.355,VALID,0,VALID,92.2116,VALID,0,VALID,24.3043,VALID,73,VALID,0.582031,
2009-11-21, 00:27:04,VALID,999.36,VALID,0,VALID,91.8835,VALID,0,VALID,24.3043,VALID,78,VALID,0.485156,
2009-11-21, 00:28:04,VALID,999.324,VALID,0,VALID,91.6623,VALID,0,VALID,24.3043,VALID,84,VALID,0.575781,
2009-11-21, 00:29:04,VALID,999.327,VALID,0,VALID,91.5097,VALID,0,VALID,24.2653,VALID,105,VALID,0.73125,
2009-11-21, 00:30:04,VALID,999.308,VALID,0,VALID,91.5478,VALID,0,VALID,24.2458,VALID,97,VALID,0.458203,
2009-11-21, 00:31:04,VALID,999.323,VALID,0,VALID,91.5249,VALID,0,VALID,24.2263,VALID,93,VALID,0.323438,
2009-11-21, 00:32:04,VALID,999.328,VALID,0,VALID,91.5631,VALID,0,VALID,24.1872,VALID,93,VALID,0.0964844,
2009-11-21, 00:33:04,VALID,999.281,VALID,0,VALID,91.6699,VALID,0.112286,VALID,24.1872,VALID,158,VALID,0.432031,
2009-11-21, 00:34:04,VALID,999.244,VALID,0,VALID,91.9598,VALID,0,VALID,24.2086,VALID,161,VALID,0.432031,
2009-11-21, 00:35:04,VALID,999.236,VALID,0,VALID,92.3718,VALID,0,VALID,24.2458,VALID,149,VALID,0.616016,
2009-11-21, 00:36:04,VALID,999.204,VALID,0,VALID,92.5015,VALID,0.112286,VALID,24.2848,VALID,143,VALID,0.666797,
2009-11-21, 00:37:04,VALID,999.167,VALID,0,VALID,92.4328,VALID,0,VALID,24.2848,VALID,151,VALID,0.676172,
2009-11-21, 00:38:04,VALID,999.184,VALID,0,VALID,92.5778,VALID,0,VALID,24.3238,VALID,147,VALID,0.853516,
2009-11-21, 00:39:04,VALID,999.156,VALID,0,VALID,92.5778,VALID,0,VALID,24.3629,VALID,189,VALID,0.801562,
2009-11-21, 00:40:04,VALID,999.143,VALID,0,VALID,92.5626,VALID,0.112286,VALID,24.4019,VALID,180,VALID,0.908203,
2009-11-21, 00:41:04,VALID,999.101,VALID,0,VALID,92.4405,VALID,0,VALID,24.4019,VALID,171,VALID,0.460547,
2009-11-21, 00:42:04,VALID,999.077,VALID,0,VALID,92.3718,VALID,0,VALID,24.4019,VALID,171,VALID,0.469922,
2009-11-21, 00:43:04,VALID,999.077,VALID,0,VALID,92.3108,VALID,0,VALID,24.4818,VALID,199,VALID,1.34258,
2009-11-21, 00:44:04,VALID,999.061,VALID,0,VALID,92.0971,VALID,0,VALID,24.519,VALID,201,VALID,0.9875,
2009-11-21, 00:45:04,VALID,999.024,VALID,0,VALID,91.853,VALID,0,VALID,24.558,VALID,199,VALID,0.774219,
2009-11-21, 00:46:04,VALID,999.013,VALID,0,VALID,91.6012,VALID,0,VALID,24.5794,VALID,163,VALID,0.713281,
2009-11-21, 00:47:04,VALID,998.979,VALID,0,VALID,91.296,VALID,0,VALID,24.5775,VALID,132,VALID,1.38398,
2009-11-21, 00:48:04,VALID,998.96,VALID,0,VALID,91.029,VALID,0,VALID,24.5794,VALID,131,VALID,1.4,
2009-11-21, 00:49:04,VALID,998.942,VALID,0,VALID,90.9909,VALID,0,VALID,24.5794,VALID,134,VALID,1.35977,
2009-11-21, 00:50:04,VALID,998.939,VALID,0,VALID,91.029,VALID,0,VALID,24.5794,VALID,130,VALID,1.25156,
2009-11-21, 00:51:04,VALID,998.924,VALID,0,VALID,90.9222,VALID,0,VALID,24.5599,VALID,133,VALID,0.410937,
2009-11-21, 00:52:04,VALID,998.952,VALID,0,VALID,90.9374,VALID,0,VALID,24.5599,VALID,102,VALID,0.580469,
2009-11-21, 00:53:04,VALID,998.938,VALID,0,VALID,90.8459,VALID,0,VALID,24.5404,VALID,94,VALID,0.480469,
2009-11-21, 00:54:04,VALID,998.957,VALID,0,VALID,90.8383,VALID,0,VALID,24.5209,VALID,95,VALID,0.0863281,
2009-11-21, 00:55:04,VALID,998.959,VALID,0,VALID,90.8535,VALID,0,VALID,24.5013,VALID,94,VALID,0.296484,
2009-11-21, 00:56:04,VALID,998.947,VALID,0,VALID,90.9374,VALID,0,VALID,24.4818,VALID,94,VALID,0.317578,
2009-11-21, 00:57:04,VALID,998.943,VALID,0,VALID,90.884,VALID,0,VALID,24.4428,VALID,84,VALID,0.483203,
2009-11-21, 00:58:04,VALID,998.931,VALID,0,VALID,90.8688,VALID,0,VALID,24.4019,VALID,70,VALID,0.203516,
2009-11-21, 00:59:04,VALID,998.915,VALID,0,VALID,90.9146,VALID,0,VALID,24.3842,VALID,70,VALID,0,
2009-11-21, 01:00:04,VALID,998.942,VALID,0,VALID,91.0137,VALID,0,VALID,24.3452,VALID,70,VALID,0,
2009-11-21, 01:01:04,VALID,998.877,VALID,0,VALID,91.1434,VALID,0,VALID,24.3257,VALID,70,VALID,0,
2009-11-21, 01:02:04,VALID,998.879,VALID,0,VALID,91.2884,VALID,0,VALID,24.2866,VALID,70,VALID,0,
2009-11-21, 01:03:04,VALID,998.866,VALID,0,VALID,91.5097,VALID,0,VALID,24.2671,VALID,68,VALID,0,
2009-11-21, 01:04:04,VALID,998.871,VALID,0,VALID,91.6394,VALID,0,VALID,24.2476,VALID,46,VALID,0.492969,
2009-11-21, 01:05:04,VALID,998.861,VALID,0,VALID,91.6699,VALID,0,VALID,24.2281,VALID,46,VALID,0.423828,
2009-11-21, 01:06:04,VALID,998.873,VALID,0,VALID,91.8225,VALID,0,VALID,24.2281,VALID,46,VALID,0.51875,
2009-11-21, 01:07:04,VALID,998.851,VALID,0,VALID,91.9598,VALID,0,VALID,24.2086,VALID,46,VALID,0.804688,
2009-11-21, 01:08:04,VALID,998.855,VALID,0,VALID,92.0666,VALID,0,VALID,24.2299,VALID,46,VALID,0.817187,
2009-11-21, 01:09:04,VALID,998.845,VALID,0,VALID,92.1506,VALID,0,VALID,24.2086,VALID,46,VALID,0.875,
2009-11-21, 01:10:04,VALID,998.861,VALID,0,VALID,92.12,VALID,0,VALID,24.2086,VALID,46,VALID,0.807422,
2009-11-21, 01:11:04,VALID,998.837,VALID,0,VALID,91.9369,VALID,0,VALID,24.1696,VALID,45,VALID,0.710547,
2009-11-21, 01:12:04,VALID,998.82,VALID,0,VALID,91.8759,VALID,0,VALID,24.1305,VALID,34,VALID,0.685156,
2009-11-21, 01:13:04,VALID,998.836,VALID,0,VALID,91.8225,VALID,0,VALID,24.0915,VALID,21,VALID,0.756641,
2009-11-21, 01:14:04,VALID,998.809,VALID,0,VALID,92.0666,VALID,0,VALID,24.0738,VALID,30,VALID,1.25742,
2009-11-21, 01:15:04,VALID,998.798,VALID,0,VALID,92.059,VALID,0,VALID,24.0543,VALID,18,VALID,1.45039,
2009-11-21, 01:16:04,VALID,998.796,VALID,0,VALID,92.1429,VALID,0,VALID,24.0116,VALID,18,VALID,1.40859,
2009-11-21, 01:17:04,VALID,998.8,VALID,0,VALID,92.1963,VALID,0.112286,VALID,23.9939,VALID,18,VALID,1.28477,
2009-11-21, 01:18:04,VALID,998.768,VALID,0,VALID,92.3566,VALID,0,VALID,23.9726,VALID,27,VALID,1.26367,
2009-11-21, 01:19:04,VALID,998.747,VALID,0,VALID,92.3794,VALID,0,VALID,23.9531,VALID,25,VALID,1.27773,
2009-11-21, 01:20:04,VALID,998.752,VALID,0,VALID,92.4786,VALID,0,VALID,24.0134,VALID,26,VALID,1.35,
2009-11-21, 01:21:04,VALID,998.738,VALID,0,VALID,92.41,VALID,0,VALID,24.0134,VALID,26,VALID,1.04883,
2009-11-21, 01:22:04,VALID,998.706,VALID,0,VALID,92.326,VALID,0,VALID,24.0116,VALID,28,VALID,1.13477,
2009-11-21, 01:23:04,VALID,998.67,VALID,0,VALID,92.1048,VALID,0.112286,VALID,24.0116,VALID,29,VALID,1.20313,
2009-11-21, 01:24:04,VALID,998.689,VALID,0,VALID,92.0132,VALID,0,VALID,24.0329,VALID,34,VALID,1.09961,
2009-11-21, 01:25:04,VALID,998.663,VALID,0,VALID,91.9445,VALID,0.112286,VALID,23.9921,VALID,36,VALID,0.780469,
2009-11-21, 01:26:04,VALID,998.662,VALID,0,VALID,91.8606,VALID,0,VALID,23.9921,VALID,37,VALID,0.553125,
2009-11-21, 01:27:04,VALID,998.68,VALID,0,VALID,91.7538,VALID,0,VALID,23.9726,VALID,31,VALID,0.0183594,
2009-11-21, 01:28:04,VALID,998.649,VALID,0,VALID,91.7309,VALID,0.112286,VALID,23.9726,VALID,316,VALID,0.335938,
2009-11-21, 01:29:04,VALID,998.667,VALID,0,VALID,91.9369,VALID,0,VALID,24.0134,VALID,233,VALID,0.577734,
2009-11-21, 01:30:04,VALID,998.627,VALID,0,VALID,92.0514,VALID,0,VALID,24.0525,VALID,215,VALID,1.05586,
2009-11-21, 01:31:04,VALID,998.585,VALID,0,VALID,92.12,VALID,0,VALID,24.0897,VALID,215,VALID,0.817187,
2009-11-21, 01:32:04,VALID,998.573,VALID,0,VALID,92.0895,VALID,0,VALID,24.1482,VALID,204,VALID,0.434766,
2009-11-21, 01:33:04,VALID,998.533,VALID,0,VALID,92.0895,VALID,0.112286,VALID,24.1872,VALID,197,VALID,0.249609,
2009-11-21, 01:34:04,VALID,998.525,VALID,0,VALID,91.9903,VALID,0.112286,VALID,24.2067,VALID,197,VALID,0,
2009-11-21, 01:35:04,VALID,998.488,VALID,0,VALID,91.9217,VALID,0.112286,VALID,24.2067,VALID,197,VALID,0,
2009-11-21, 01:36:04,VALID,998.531,VALID,0,VALID,91.853,VALID,0,VALID,24.2281,VALID,197,VALID,0,
2009-11-21, 01:37:04,VALID,998.51,VALID,0,VALID,91.853,VALID,0,VALID,24.2067,VALID,197,VALID,0,
2009-11-21, 01:38:04,VALID,998.536,VALID,0,VALID,91.8454,VALID,0,VALID,24.2476,VALID,197,VALID,0,
2009-11-21, 01:39:04,VALID,998.551,VALID,0,VALID,91.6546,VALID,0,VALID,24.2281,VALID,70,VALID,0.83125,
2009-11-21, 01:40:04,VALID,998.527,VALID,0,VALID,91.4791,VALID,0,VALID,24.2067,VALID,80,VALID,0.711328,
2009-11-21, 01:41:04,VALID,998.504,VALID,0,VALID,91.2731,VALID,0.112286,VALID,24.2653,VALID,80,VALID,1.12773,
2009-11-21, 01:42:04,VALID,998.502,VALID,0,VALID,91.0443,VALID,0.112286,VALID,24.2848,VALID,87,VALID,1.11406,
2009-11-21, 01:43:04,VALID,998.506,VALID,0,VALID,90.9451,VALID,0,VALID,24.3238,VALID,85,VALID,0.480469,
2009-11-21, 01:44:04,VALID,998.445,VALID,0,VALID,90.7849,VALID,0,VALID,24.3433,VALID,286,VALID,1.24648,
2009-11-21, 01:45:04,VALID,998.461,VALID,0,VALID,90.8993,VALID,0,VALID,24.3433,VALID,281,VALID,0.753516,
2009-11-21, 01:46:04,VALID,998.409,VALID,0,VALID,91.0214,VALID,0,VALID,24.3257,VALID,245,VALID,1.02891,
2009-11-21, 01:47:04,VALID,998.38,VALID,0,VALID,90.9909,VALID,0,VALID,24.3647,VALID,190,VALID,1.10859,
2009-11-21, 01:48:04,VALID,998.35,VALID,0,VALID,90.6933,VALID,0,VALID,24.4233,VALID,157,VALID,0.948828,
2009-11-21, 01:49:04,VALID,998.323,VALID,0,VALID,90.3576,VALID,0,VALID,24.4623,VALID,131,VALID,0.711328,
2009-11-21, 01:50:04,VALID,998.315,VALID,0,VALID,89.8617,VALID,0,VALID,24.5013,VALID,118,VALID,1.65586,
2009-11-21, 01:51:04,VALID,998.356,VALID,0,VALID,89.5794,VALID,0,VALID,24.6008,VALID,118,VALID,0.742969,
2009-11-21, 01:52:04,VALID,998.353,VALID,0,VALID,89.2284,VALID,0,VALID,24.5989,VALID,125,VALID,0.655078,
2009-11-21, 01:53:04,VALID,998.372,VALID,0,VALID,89.2589,VALID,0,VALID,24.5404,VALID,117,VALID,0.614844,
2009-11-21, 01:54:04,VALID,998.372,VALID,0,VALID,89.3963,VALID,0,VALID,24.5209,VALID,117,VALID,0.191797,
2009-11-21, 01:55:04,VALID,998.362,VALID,0,VALID,89.5183,VALID,0,VALID,24.4818,VALID,117,VALID,0,
2009-11-21, 01:56:04,VALID,998.358,VALID,0,VALID,89.6557,VALID,0,VALID,24.4428,VALID,117,VALID,0.208203,
2009-11-21, 01:57:04,VALID,998.341,VALID,0,VALID,89.8388,VALID,0,VALID,24.4037,VALID,116,VALID,0.246484,
2009-11-21, 01:58:04,VALID,998.365,VALID,0,VALID,89.8235,VALID,0,VALID,24.3647,VALID,13,VALID,0.549219,
2009-11-21, 01:59:04,VALID,998.37,VALID,0,VALID,89.7549,VALID,0,VALID,24.3062,VALID,13,VALID,0.562891,
2009-11-21, 02:00:04,VALID,998.345,VALID,0,VALID,90.1287,VALID,0,VALID,24.2476,VALID,14,VALID,0.957031,
2009-11-21, 02:01:04,VALID,998.324,VALID,0,VALID,90.6628,VALID,0,VALID,24.2281,VALID,21,VALID,1.19297,
2009-11-21, 02:02:04,VALID,998.303,VALID,0,VALID,90.6017,VALID,0,VALID,24.2086,VALID,34,VALID,1.14063,
2009-11-21, 02:03:04,VALID,998.284,VALID,0,VALID,90.884,VALID,0,VALID,24.1891,VALID,40,VALID,1.04961,
2009-11-21, 02:04:04,VALID,998.268,VALID,0,VALID,90.8993,VALID,0,VALID,24.15,VALID,45,VALID,0.766797,
2009-11-21, 02:05:04,VALID,998.261,VALID,0,VALID,90.7696,VALID,0,VALID,24.1305,VALID,49,VALID,0.475391,
2009-11-21, 02:06:04,VALID,998.241,VALID,0,VALID,90.8764,VALID,0,VALID,24.0915,VALID,75,VALID,0.443359,
2009-11-21, 02:07:04,VALID,998.25,VALID,0,VALID,91.1587,VALID,0,VALID,24.072,VALID,75,VALID,0.503906,
2009-11-21, 02:08:04,VALID,998.231,VALID,0,VALID,91.4181,VALID,0,VALID,24.0738,VALID,76,VALID,0.763672,
2009-11-21, 02:09:04,VALID,998.206,VALID,0,VALID,91.3571,VALID,0,VALID,24.0738,VALID,76,VALID,0.621094,
2009-11-21, 02:10:04,VALID,998.202,VALID,0,VALID,91.4639,VALID,0,VALID,24.0525,VALID,77,VALID,0.573047,
2009-11-21, 02:11:04,VALID,998.222,VALID,0,VALID,91.4028,VALID,0,VALID,24.0525,VALID,77,VALID,0.155859,
2009-11-21, 02:12:04,VALID,998.23,VALID,0,VALID,91.4334,VALID,0,VALID,24.0348,VALID,77,VALID,0,
2009-11-21, 02:13:04,VALID,998.222,VALID,0,VALID,91.5249,VALID,0,VALID,24.0134,VALID,77,VALID,0,
2009-11-21, 02:14:04,VALID,998.206,VALID,0,VALID,91.6394,VALID,0,VALID,24.0134,VALID,77,VALID,0,
2009-11-21, 02:15:04,VALID,998.185,VALID,0,VALID,91.7614,VALID,0,VALID,24.0153,VALID,77,VALID,0,
2009-11-21, 02:16:04,VALID,998.209,VALID,0,VALID,91.8225,VALID,0,VALID,24.0348,VALID,77,VALID,0,
2009-11-21, 02:17:04,VALID,998.175,VALID,0,VALID,91.9064,VALID,0,VALID,24.0153,VALID,77,VALID,0.189844,
2009-11-21, 02:18:04,VALID,998.208,VALID,0,VALID,91.9827,VALID,0,VALID,24.0134,VALID,61,VALID,0.666406,
2009-11-21, 02:19:04,VALID,998.191,VALID,0,VALID,92.0209,VALID,0,VALID,24.0134,VALID,59,VALID,0.8375,
2009-11-21, 02:20:04,VALID,998.191,VALID,0,VALID,92.0361,VALID,0,VALID,24.0329,VALID,60,VALID,0.620313,
2009-11-21, 02:21:04,VALID,998.106,VALID,0,VALID,91.9445,VALID,0,VALID,24.0329,VALID,60,VALID,0.402344,
2009-11-21, 02:22:04,VALID,998.063,VALID,0,VALID,91.8988,VALID,0,VALID,24.0329,VALID,64,VALID,0.750391,
2009-11-21, 02:23:04,VALID,998.009,VALID,0,VALID,91.8148,VALID,0,VALID,24.0329,VALID,71,VALID,0.815234,
2009-11-21, 02:24:04,VALID,997.986,VALID,0,VALID,91.8148,VALID,0,VALID,24.0525,VALID,71,VALID,0.846875,
2009-11-21, 02:25:04,VALID,997.977,VALID,0,VALID,91.7462,VALID,0,VALID,24.072,VALID,74,VALID,0.365625,
2009-11-21, 02:26:04,VALID,997.971,VALID,0,VALID,91.6623,VALID,0,VALID,24.072,VALID,74,VALID,0,
2009-11-21, 02:27:04,VALID,997.955,VALID,0,VALID,91.6546,VALID,0,VALID,24.0933,VALID,74,VALID,0.233984,
2009-11-21, 02:28:04,VALID,997.939,VALID,0,VALID,91.7157,VALID,0,VALID,24.1128,VALID,314,VALID,0.619922,
2009-11-21, 02:29:04,VALID,997.908,VALID,0,VALID,91.7538,VALID,0,VALID,24.1305,VALID,243,VALID,0.672266,
2009-11-21, 02:30:04,VALID,997.877,VALID,0,VALID,91.7157,VALID,0,VALID,24.15,VALID,243,VALID,0.539063,
2009-11-21, 02:31:04,VALID,997.865,VALID,0,VALID,91.647,VALID,0.112286,VALID,24.1659,VALID,242,VALID,0.136328,
2009-11-21, 02:32:04,VALID,997.836,VALID,0,VALID,91.5554,VALID,0,VALID,24.1677,VALID,242,VALID,0.00195313,
2009-11-21, 02:33:04,VALID,997.784,VALID,0,VALID,91.4715,VALID,0.112286,VALID,24.1872,VALID,110,VALID,0.617578,
2009-11-21, 02:34:04,VALID,997.794,VALID,0,VALID,91.2808,VALID,0,VALID,24.2067,VALID,89,VALID,1.27813,
2009-11-21, 02:35:04,VALID,997.769,VALID,0,VALID,91.0977,VALID,0.112286,VALID,24.2263,VALID,98,VALID,1.1457,
2009-11-21, 02:36:04,VALID,997.783,VALID,0,VALID,91.0137,VALID,0,VALID,24.2653,VALID,97,VALID,1.31172,
2009-11-21, 02:37:04,VALID,997.807,VALID,0,VALID,90.8917,VALID,0.112286,VALID,24.2848,VALID,95,VALID,1.33633,
2009-11-21, 02:38:04,VALID,997.799,VALID,0,VALID,90.8611,VALID,0,VALID,24.2848,VALID,90,VALID,1.11914,
2009-11-21, 02:39:04,VALID,997.809,VALID,0,VALID,90.8535,VALID,0.112286,VALID,24.2848,VALID,93,VALID,0.280078,
2009-11-21, 02:40:04,VALID,997.751,VALID,0,VALID,90.8917,VALID,0.112286,VALID,24.2653,VALID,93,VALID,0,
2009-11-21, 02:41:04,VALID,997.759,VALID,0,VALID,90.9069,VALID,0.112286,VALID,24.2458,VALID,34,VALID,0.267188,
2009-11-21, 02:42:04,VALID,997.763,VALID,0,VALID,90.9985,VALID,0.112286,VALID,24.2263,VALID,321,VALID,0.645312,
2009-11-21, 02:43:04,VALID,997.782,VALID,0,VALID,91.1129,VALID,0,VALID,24.2263,VALID,300,VALID,0.876172,
2009-11-21, 02:44:04,VALID,997.771,VALID,0,VALID,91.2197,VALID,0,VALID,24.2067,VALID,295,VALID,0.682813,
2009-11-21, 02:45:04,VALID,997.76,VALID,0,VALID,91.2655,VALID,0,VALID,24.2281,VALID,295,VALID,0.183594,
2009-11-21, 02:46:04,VALID,997.759,VALID,0,VALID,91.2808,VALID,0,VALID,24.1891,VALID,295,VALID,0.229297,
2009-11-21, 02:47:04,VALID,997.793,VALID,0,VALID,91.3494,VALID,0,VALID,24.1891,VALID,351,VALID,0.588281,
2009-11-21, 02:48:04,VALID,997.81,VALID,0,VALID,91.3113,VALID,0,VALID,24.1891,VALID,49,VALID,0,
2009-11-21, 02:49:04,VALID,997.845,VALID,0,VALID,91.2045,VALID,0,VALID,24.2104,VALID,49,VALID,0,
2009-11-21, 02:50:04,VALID,997.861,VALID,0,VALID,91.1511,VALID,0,VALID,24.2299,VALID,49,VALID,0,
2009-11-21, 02:51:04,VALID,997.871,VALID,0,VALID,91.1282,VALID,0,VALID,24.2104,VALID,49,VALID,0,
2009-11-21, 02:52:04,VALID,997.894,VALID,0,VALID,91.1282,VALID,0,VALID,24.2299,VALID,23,VALID,0.0816406,
2009-11-21, 02:53:04,VALID,997.901,VALID,0,VALID,91.1587,VALID,0,VALID,24.2104,VALID,349,VALID,0.541797,
2009-11-21, 02:54:04,VALID,997.923,VALID,0,VALID,91.1816,VALID,0,VALID,24.2086,VALID,348,VALID,0.576172,
2009-11-21, 02:55:04,VALID,997.966,VALID,0,VALID,91.2197,VALID,0,VALID,24.2086,VALID,348,VALID,0.391797,
2009-11-21, 02:56:04,VALID,997.967,VALID,0,VALID,91.1892,VALID,0,VALID,24.2104,VALID,348,VALID,0,
2009-11-21, 02:57:04,VALID,997.968,VALID,0,VALID,91.1663,VALID,0,VALID,24.1696,VALID,348,VALID,0.597656,
2009-11-21, 02:58:04,VALID,997.966,VALID,0,VALID,91.1968,VALID,0,VALID,24.1696,VALID,348,VALID,0.532812,
2009-11-21, 02:59:04,VALID,997.958,VALID,0,VALID,91.1587,VALID,0,VALID,24.1909,VALID,348,VALID,0.574609,
2009-11-21, 03:00:04,VALID,997.95,VALID,0,VALID,91.1053,VALID,0,VALID,24.1305,VALID,348,VALID,0.233594,
2009-11-21, 03:01:04,VALID,997.959,VALID,0,VALID,91.2808,VALID,0,VALID,24.1092,VALID,348,VALID,0,
2009-11-21, 03:02:04,VALID,997.943,VALID,0,VALID,91.3647,VALID,0.112286,VALID,24.1092,VALID,348,VALID,0,
2009-11-21, 03:03:04,VALID,997.944,VALID,0,VALID,91.4334,VALID,0,VALID,24.0701,VALID,348,VALID,0,
2009-11-21, 03:04:04,VALID,997.933,VALID,0,VALID,91.5554,VALID,0.112286,VALID,24.0915,VALID,348,VALID,0,
2009-11-21, 03:05:04,VALID,997.96,VALID,0,VALID,91.647,VALID,0,VALID,24.0525,VALID,348,VALID,0,
2009-11-21, 03:06:04,VALID,997.935,VALID,0,VALID,91.7462,VALID,0,VALID,24.0525,VALID,348,VALID,0,
2009-11-21, 03:07:04,VALID,997.976,VALID,0,VALID,91.8606,VALID,0,VALID,24.0329,VALID,348,VALID,0,
2009-11-21, 03:08:04,VALID,997.955,VALID,0,VALID,91.9445,VALID,0,VALID,24.0116,VALID,348,VALID,0,
2009-11-21, 03:09:04,VALID,997.978,VALID,0,VALID,92.0437,VALID,0,VALID,23.9921,VALID,348,VALID,0,
2009-11-21, 03:10:04,VALID,997.951,VALID,0,VALID,92.1124,VALID,0.112286,VALID,24.0116,VALID,348,VALID,0,
2009-11-21, 03:11:04,VALID,997.928,VALID,0,VALID,92.12,VALID,0,VALID,23.9921,VALID,348,VALID,0,
2009-11-21, 03:12:04,VALID,997.946,VALID,0,VALID,92.1658,VALID,0,VALID,23.9726,VALID,348,VALID,0,
2009-11-21, 03:13:04,VALID,997.934,VALID,0,VALID,91.7996,VALID,0,VALID,23.9159,VALID,348,VALID,0.101563,
2009-11-21, 03:14:04,VALID,997.908,VALID,0,VALID,92.0514,VALID,0,VALID,23.8768,VALID,348,VALID,0.696875,
2009-11-21, 03:15:04,VALID,997.907,VALID,0,VALID,92.326,VALID,0,VALID,23.8768,VALID,348,VALID,0.233594,
2009-11-21, 03:16:04,VALID,997.914,VALID,0,VALID,92.3871,VALID,0,VALID,23.8768,VALID,348,VALID,0,
2009-11-21, 03:17:04,VALID,997.89,VALID,0,VALID,92.4634,VALID,0,VALID,23.8555,VALID,348,VALID,0.148047,
2009-11-21, 03:18:04,VALID,997.859,VALID,0,VALID,92.5854,VALID,0,VALID,23.8963,VALID,348,VALID,0.326172,
2009-11-21, 03:19:04,VALID,997.86,VALID,0,VALID,92.6007,VALID,0,VALID,23.8963,VALID,350,VALID,0.421484,
2009-11-21, 03:20:04,VALID,997.874,VALID,0,VALID,92.5397,VALID,0.112286,VALID,23.875,VALID,70,VALID,0.519141,
2009-11-21, 03:21:04,VALID,997.887,VALID,0,VALID,92.5015,VALID,0,VALID,23.8945,VALID,88,VALID,0.630859,
2009-11-21, 03:22:04,VALID,997.89,VALID,0,VALID,92.3566,VALID,0,VALID,23.8945,VALID,100,VALID,0.678906,
2009-11-21, 03:23:04,VALID,997.866,VALID,0,VALID,92.3031,VALID,0,VALID,23.8945,VALID,109,VALID,0.607813,
2009-11-21, 03:24:04,VALID,997.891,VALID,0,VALID,92.2268,VALID,0.112286,VALID,23.9354,VALID,120,VALID,0.510547,
2009-11-21, 03:25:04,VALID,997.881,VALID,0,VALID,92.1353,VALID,0,VALID,23.9336,VALID,120,VALID,0.638281,
2009-11-21, 03:26:04,VALID,997.876,VALID,0,VALID,92.0514,VALID,0,VALID,23.914,VALID,120,VALID,0.888672,
2009-11-21, 03:27:04,VALID,997.87,VALID,0,VALID,92.0285,VALID,0.112286,VALID,23.8945,VALID,120,VALID,1.01641,
2009-11-21, 03:28:04,VALID,997.844,VALID,0,VALID,92.1048,VALID,0,VALID,23.9159,VALID,122,VALID,1.01719,
2009-11-21, 03:29:04,VALID,997.885,VALID,0,VALID,92.0437,VALID,0,VALID,23.9159,VALID,117,VALID,0.780859,
2009-11-21, 03:30:04,VALID,997.884,VALID,0,VALID,91.914,VALID,0,VALID,23.8963,VALID,118,VALID,0.532031,
2009-11-21, 03:31:04,VALID,997.908,VALID,0,VALID,91.914,VALID,0,VALID,23.8555,VALID,119,VALID,0.476953,
2009-11-21, 03:32:04,VALID,997.945,VALID,0,VALID,92.0209,VALID,0,VALID,23.836,VALID,122,VALID,0.603125,
2009-11-21, 03:33:04,VALID,997.909,VALID,0,VALID,92.059,VALID,0,VALID,23.8165,VALID,126,VALID,0.625,
2009-11-21, 03:34:04,VALID,997.878,VALID,0,VALID,92.1582,VALID,0,VALID,23.8378,VALID,143,VALID,0.783984,
2009-11-21, 03:35:04,VALID,997.888,VALID,0,VALID,92.2421,VALID,0,VALID,23.836,VALID,146,VALID,0.896484,
2009-11-21, 03:36:04,VALID,997.885,VALID,0,VALID,92.2116,VALID,0,VALID,23.8573,VALID,145,VALID,0.800391,
2009-11-21, 03:37:04,VALID,997.864,VALID,0,VALID,92.2192,VALID,0,VALID,23.8768,VALID,145,VALID,0.560938,
2009-11-21, 03:38:04,VALID,997.864,VALID,0,VALID,92.1811,VALID,0.112286,VALID,23.836,VALID,128,VALID,0.639844,
2009-11-21, 03:39:04,VALID,997.837,VALID,0,VALID,92.1277,VALID,0,VALID,23.8573,VALID,125,VALID,0.388281,
2009-11-21, 03:40:04,VALID,997.849,VALID,0,VALID,92.0437,VALID,0,VALID,23.836,VALID,125,VALID,0.321484,
2009-11-21, 03:41:04,VALID,997.842,VALID,0,VALID,91.9827,VALID,0,VALID,23.8165,VALID,125,VALID,0,
2009-11-21, 03:42:04,VALID,997.828,VALID,0,VALID,92.0361,VALID,0,VALID,23.8378,VALID,125,VALID,0,
2009-11-21, 03:43:04,VALID,997.884,VALID,0,VALID,92.12,VALID,0,VALID,23.8165,VALID,123,VALID,0,
2009-11-21, 03:44:04,VALID,997.887,VALID,0,VALID,92.2345,VALID,0,VALID,23.8378,VALID,74,VALID,0.0425781,
2009-11-21, 03:45:04,VALID,997.882,VALID,0,VALID,92.3489,VALID,0.112286,VALID,23.8573,VALID,21,VALID,0.255469,
2009-11-21, 03:46:04,VALID,997.901,VALID,0,VALID,92.3871,VALID,0,VALID,23.836,VALID,21,VALID,0.301562,